Time,TemperatureF,DewpointF,PressureIn,WindDirection,WindDirectionDegrees,WindSpeedMPH,WindSpeedGustMPH,Humidity,HourlyPrecipIn,Conditions,Clouds,dailyrainin,SoftwareType,DateUTC
2013-06-20 00:01:00,69.1,60.8,29.64,ESE,112,10.0,11.5,75,0.00,CLR,,0.00,WeatherDisplay:10.37,2013-06-20 06:01:00,
2013-06-20 00:06:00,69.1,61.2,29.64,NE,45,6.3,10.4,76,0.00,CLR,,0.00,WeatherDisplay:10.37,2013-06-20 06:06:00,
2013-06-20 00:11:00,68.9,61.0,29.64,ESE,112,8.8,10.4,76,0.00,CLR,,0.00,WeatherDisplay:10.37,2013-06-20 06:11:00,
2013-06-20 00:16:00,68.9,61.4,29.63,ESE,112,11.8,12.7,77,0.00,CLR,,0.00,WeatherDisplay:10.37,2013-06-20 06:16:00,
2013-06-20 00:21:00,68.7,61.2,29.63,ESE,112,9.2,11.4,77,0.00,CLR,,0.00,WeatherDisplay:10.37,2013-06-20 06:21:00,
2013-06-20 00:26:00,68.7,61.2,29.63,ESE,112,9.3,11.5,77,0.00,CLR,,0.00,WeatherDisplay:10.37,2013-06-20 06:26:00,
2013-06-20 00:31:00,68.7,61.2,29.63,ESE,112,7.8,11.5,77,0.00,CLR,,0.00,WeatherDisplay:10.37,2013-06-20 06:31:00,
2013-06-20 00:36:00,68.5,61.0,29.63,East,90,10.0,12.7,77,0.00,CLR,,0.00,WeatherDisplay:10.37,2013-06-20 06:36:00,
2013-06-20 00:41:00,68.5,61.4,29.62,ESE,112,11.1,17.1,78,0.00,CLR,,0.00,WeatherDisplay:10.37,2013-06-20 06:41:00,
2013-06-20 00:46:00,68.5,61.4,29.62,ESE,112,13.4,17.3,78,0.00,CLR,,0.00,WeatherDisplay:10.37,2013-06-20 06:46:00,
2013-06-20 00:52:00,68.5,61.4,29.61,SE,135,9.0,15.0,78,0.00,CLR,,0.00,WeatherDisplay:10.37,2013-06-20 06:52:00,
2013-06-20 00:57:00,68.7,61.6,29.61,ESE,112,12.4,13.8,78,0.00,CLR,,0.00,WeatherDisplay:10.37,2013-06-20 06:57:00,
2013-06-20 01:02:00,68.7,61.6,29.60,ESE,112,9.0,12.7,78,0.00,CLR,,0.00,WeatherDisplay:10.37,2013-06-20 07:02:00,
2013-06-20 01:07:00,68.7,61.6,29.60,ESE,112,13.5,13.5,78,0.00,CLR,,0.00,WeatherDisplay:10.37,2013-06-20 07:07:00,
2013-06-20 01:12:00,68.5,61.4,29.60,ESE,112,12.3,12.3,78,0.00,CLR,,0.00,WeatherDisplay:10.37,2013-06-20 07:12:00,
2013-06-20 01:17:00,68.7,61.6,29.61,ESE,112,12.1,16.1,78,0.00,CLR,,0.00,WeatherDisplay:10.37,2013-06-20 07:17:00,
2013-06-20 01:22:00,68.7,61.6,29.61,East,90,9.1,13.8,78,0.00,CLR,,0.00,WeatherDisplay:10.37,2013-06-20 07:22:00,
2013-06-20 01:27:00,68.5,61.4,29.62,SE,135,8.6,10.4,78,0.00,CLR,,0.00,WeatherDisplay:10.37,2013-06-20 07:27:00,
2013-06-20 01:32:00,68.4,61.3,29.62,SE,135,7.4,10.4,78,0.00,CLR,,0.00,WeatherDisplay:10.37,2013-06-20 07:32:00,
2013-06-20 01:37:00,68.4,61.3,29.62,ESE,112,9.7,11.5,78,0.00,CLR,,0.00,WeatherDisplay:10.37,2013-06-20 07:37:00,
2013-06-20 01:42:00,68.4,61.6,29.61,SSE,158,9.5,13.8,79,0.00,CLR,,0.00,WeatherDisplay:10.37,2013-06-20 07:42:00,
2013-06-20 01:47:00,68.2,61.4,29.61,ESE,112,8.8,10.4,79,0.00,CLR,,0.00,WeatherDisplay:10.37,2013-06-20 07:47:00,
2013-06-20 01:52:00,68.0,61.2,29.61,ESE,112,7.4,8.1,79,0.00,CLR,,0.00,WeatherDisplay:10.37,2013-06-20 07:52:00,
2013-06-20 01:57:00,68.0,61.2,29.61,ENE,68,7.3,10.4,79,0.00,CLR,,0.00,WeatherDisplay:10.37,2013-06-20 07:57:00,
2013-06-20 02:02:00,68.0,61.6,29.60,ESE,112,6.7,9.2,80,0.00,CLR,,0.00,WeatherDisplay:10.37,2013-06-20 08:02:00,
2013-06-20 02:07:00,68.0,61.6,29.60,NE,45,6.1,9.2,80,0.00,CLR,,0.00,WeatherDisplay:10.37,2013-06-20 08:07:00,
2013-06-20 02:12:00,68.0,61.6,29.60,SE,135,5.3,6.3,80,0.00,CLR,,0.00,WeatherDisplay:10.37,2013-06-20 08:12:00,
2013-06-20 02:17:00,68.0,61.6,29.59,SSE,158,7.7,13.0,80,0.00,CLR,,0.00,WeatherDisplay:10.37,2013-06-20 08:17:00,
2013-06-20 02:22:00,68.2,61.8,29.59,East,90,11.5,13.8,80,0.00,CLR,,0.00,WeatherDisplay:10.37,2013-06-20 08:22:00,
2013-06-20 02:27:00,68.2,61.8,29.59,East,90,6.8,9.2,80,0.00,CLR,,0.00,WeatherDisplay:10.37,2013-06-20 08:27:00,
2013-06-20 02:32:00,68.2,61.8,29.59,ESE,112,10.3,11.5,80,0.00,CLR,,0.00,WeatherDisplay:10.37,2013-06-20 08:32:00,
2013-06-20 02:37:00,68.2,61.4,29.59,ESE,112,8.6,12.7,79,0.00,CLR,,0.00,WeatherDisplay:10.37,2013-06-20 08:37:00,
2013-06-20 02:42:00,68.4,61.6,29.60,ESE,112,7.3,8.8,79,0.00,CLR,,0.00,WeatherDisplay:10.37,2013-06-20 08:42:00,
2013-06-20 02:47:00,68.4,61.6,29.60,East,90,11.9,11.9,79,0.00,CLR,,0.00,WeatherDisplay:10.37,2013-06-20 08:47:00,
2013-06-20 02:52:00,68.5,61.7,29.60,East,90,8.2,9.2,79,0.00,CLR,,0.00,WeatherDisplay:10.37,2013-06-20 08:52:00,
2013-06-20 02:57:00,68.9,61.8,29.60,ESE,112,12.5,13.8,78,0.00,CLR,,0.00,WeatherDisplay:10.37,2013-06-20 08:57:00,
2013-06-20 03:02:00,68.9,61.8,29.61,SSE,158,7.3,10.4,78,0.00,CLR,,0.00,WeatherDisplay:10.37,2013-06-20 09:02:00,
2013-06-20 03:07:00,68.9,61.8,29.61,SE,135,7.8,8.1,78,0.00,CLR,,0.00,WeatherDisplay:10.37,2013-06-20 09:07:00,
2013-06-20 03:12:00,69.1,61.6,29.61,SE,135,8.1,10.4,77,0.00,CLR,,0.00,WeatherDisplay:10.37,2013-06-20 09:12:00,
2013-06-20 03:17:00,69.1,61.6,29.62,SE,135,6.3,8.1,77,0.00,CLR,,0.00,WeatherDisplay:10.37,2013-06-20 09:17:00,
2013-06-20 03:22:00,69.1,61.6,29.62,ESE,112,6.6,10.4,77,0.00,CLR,,0.00,WeatherDisplay:10.37,2013-06-20 09:22:00,
2013-06-20 03:27:00,68.9,61.4,29.62,ESE,112,6.6,10.9,77,0.00,CLR,,0.00,WeatherDisplay:10.37,2013-06-20 09:27:00,
2013-06-20 03:32:00,68.9,61.4,29.62,ESE,112,8.5,10.4,77,0.00,CLR,,0.00,WeatherDisplay:10.37,2013-06-20 09:32:00,
2013-06-20 03:37:00,68.9,61.4,29.62,ESE,112,10.4,10.4,77,0.00,CLR,,0.00,WeatherDisplay:10.37,2013-06-20 09:37:00,
2013-06-20 03:42:00,68.4,61.3,29.63,SE,135,8.5,11.5,78,0.00,CLR,,0.00,WeatherDisplay:10.37,2013-06-20 09:42:00,
2013-06-20 03:47:00,68.4,61.3,29.63,SE,135,9.7,13.8,78,0.00,CLR,,0.00,WeatherDisplay:10.37,2013-06-20 09:47:00,
2013-06-20 03:52:00,68.4,61.3,29.64,SE,135,9.9,12.7,78,0.00,CLR,,0.00,WeatherDisplay:10.37,2013-06-20 09:52:00,
2013-06-20 03:57:00,68.5,61.4,29.64,ESE,112,13.5,13.8,78,0.00,CLR,,0.00,WeatherDisplay:10.37,2013-06-20 09:57:00,
2013-06-20 04:02:00,67.8,61.4,29.66,ESE,112,13.3,13.8,80,0.00,CLR,,0.00,WeatherDisplay:10.37,2013-06-20 10:02:00,
2013-06-20 04:07:00,65.7,57.9,29.66,ESE,112,11.4,16.1,76,0.00,CLR,,0.00,WeatherDisplay:10.37,2013-06-20 10:07:00,
2013-06-20 04:12:00,64.9,57.5,29.66,South,180,3.9,5.8,77,0.00,SCT,,0.00,WeatherDisplay:10.37,2013-06-20 10:12:00,
2013-06-20 04:17:00,64.0,58.1,29.63,South,180,5.2,8.8,81,0.02,RA,,0.02,WeatherDisplay:10.37,2013-06-20 10:17:00,
2013-06-20 04:22:00,62.6,58.0,29.63,SE,135,3.8,5.8,85,0.05,RA,,0.05,WeatherDisplay:10.37,2013-06-20 10:22:00,
2013-06-20 04:27:00,62.8,57.9,29.66,ESE,112,9.4,11.5,84,0.07,RA,,0.07,WeatherDisplay:10.37,2013-06-20 10:27:00,
2013-06-20 04:32:00,62.4,57.8,29.66,ESE,112,8.7,11.5,85,0.09,RA,,0.09,WeatherDisplay:10.37,2013-06-20 10:32:00,
2013-06-20 04:37:00,62.8,58.2,29.66,SSE,158,6.7,9.9,85,0.09,RA,,0.09,WeatherDisplay:10.37,2013-06-20 10:37:00,
2013-06-20 04:42:00,63.9,58.3,29.66,SE,135,5.5,6.9,82,0.10,RA,,0.10,WeatherDisplay:10.37,2013-06-20 10:42:00,
2013-06-20 04:47:00,63.5,57.6,29.66,South,180,10.0,10.4,81,0.10,RA,,0.10,WeatherDisplay:10.37,2013-06-20 10:47:00,
2013-06-20 04:52:00,63.3,57.0,29.66,South,180,6.3,8.1,80,0.10,BKN,,0.10,WeatherDisplay:10.37,2013-06-20 10:52:00,
2013-06-20 04:57:00,63.1,56.1,29.66,SSW,202,2.0,4.6,78,0.10,BKN,,0.10,WeatherDisplay:10.37,2013-06-20 10:57:00,
2013-06-20 05:02:00,62.8,56.2,29.65,SW,225,1.7,3.5,79,0.10,BKN,,0.10,WeatherDisplay:10.37,2013-06-20 11:02:00,
2013-06-20 05:07:00,62.6,56.0,29.65,SW,225,1.9,2.3,79,0.10,BKN,,0.10,WeatherDisplay:10.37,2013-06-20 11:07:00,
2013-06-20 05:12:00,62.4,56.1,29.65,SSE,158,2.6,3.2,80,0.10,BKN,,0.10,WeatherDisplay:10.37,2013-06-20 11:12:00,
2013-06-20 05:17:00,63.0,56.0,29.64,ESE,112,2.9,4.6,78,0.08,BKN,,0.10,WeatherDisplay:10.37,2013-06-20 11:17:00,
2013-06-20 05:22:00,62.8,57.2,29.64,North,360,0.0,0.0,82,0.05,BKN,,0.10,WeatherDisplay:10.37,2013-06-20 11:22:00,
2013-06-20 05:27:00,62.4,57.5,29.64,ESE,112,3.2,3.7,84,0.03,BKN,,0.10,WeatherDisplay:10.37,2013-06-20 11:27:00,
2013-06-20 05:32:00,62.6,56.7,29.64,ENE,68,0.0,0.0,81,0.01,BKN,,0.10,WeatherDisplay:10.37,2013-06-20 11:32:00,
2013-06-20 05:37:00,63.1,56.1,29.64,SSE,158,4.2,4.7,78,0.01,BKN,,0.10,WeatherDisplay:10.37,2013-06-20 11:37:00,
2013-06-20 05:42:00,63.3,56.3,29.64,ESE,112,5.1,5.8,78,0.00,BKN,,0.10,WeatherDisplay:10.37,2013-06-20 11:42:00,
2013-06-20 05:47:00,63.3,56.7,29.64,SSE,158,3.9,4.6,79,0.00,BKN,,0.10,WeatherDisplay:10.37,2013-06-20 11:47:00,
2013-06-20 05:52:00,63.3,56.3,29.65,ESE,112,5.2,5.8,78,0.00,BKN,,0.10,WeatherDisplay:10.37,2013-06-20 11:52:00,
2013-06-20 05:57:00,63.3,56.7,29.65,South,180,4.9,5.8,79,0.00,BKN,,0.10,WeatherDisplay:10.37,2013-06-20 11:57:00,
2013-06-20 06:02:00,63.1,56.8,29.65,WSW,248,2.6,2.7,80,0.00,BKN,,0.10,WeatherDisplay:10.37,2013-06-20 12:02:00,
2013-06-20 06:07:00,62.8,56.9,29.65,NW,315,0.0,0.0,81,0.00,BKN,,0.10,WeatherDisplay:10.37,2013-06-20 12:07:00,
2013-06-20 06:12:00,62.4,56.8,29.65,NE,45,0.3,1.1,82,0.00,FEW,,0.10,WeatherDisplay:10.37,2013-06-20 12:12:00,
2013-06-20 06:17:00,62.2,57.6,29.65,NE,45,0.0,0.0,85,0.00,FEW,,0.10,WeatherDisplay:10.37,2013-06-20 12:17:00,
2013-06-20 06:23:00,62.2,57.6,29.65,NE,45,0.4,1.1,85,0.00,FEW,,0.10,WeatherDisplay:10.37,2013-06-20 12:23:00,
2013-06-20 06:28:00,62.2,57.3,29.66,East,90,0.1,1.1,84,0.00,FEW,,0.10,WeatherDisplay:10.37,2013-06-20 12:28:00,
2013-06-20 06:33:00,62.2,57.6,29.66,East,90,0.0,1.1,85,0.00,FEW,,0.10,WeatherDisplay:10.37,2013-06-20 12:33:00,
2013-06-20 06:38:00,62.2,58.0,29.66,SW,225,2.2,2.7,86,0.00,FEW,,0.10,WeatherDisplay:10.37,2013-06-20 12:38:00,
2013-06-20 06:43:00,62.2,58.0,29.66,NNW,338,0.0,1.1,86,0.00,FEW,,0.10,WeatherDisplay:10.37,2013-06-20 12:43:00,
2013-06-20 06:48:00,62.4,58.5,29.66,NE,45,0.0,0.0,87,0.00,FEW,,0.10,WeatherDisplay:10.37,2013-06-20 12:48:00,
2013-06-20 06:53:00,62.6,58.0,29.66,SW,225,1.4,2.2,85,0.00,FEW,,0.10,WeatherDisplay:10.37,2013-06-20 12:53:00,
2013-06-20 06:58:00,62.6,58.0,29.66,SW,225,2.5,3.7,85,0.00,FEW,,0.10,WeatherDisplay:10.37,2013-06-20 12:58:00,
2013-06-20 07:03:00,62.8,58.2,29.66,SW,225,0.7,2.3,85,0.00,FEW,,0.10,WeatherDisplay:10.37,2013-06-20 13:03:00,
2013-06-20 07:08:00,63.3,59.0,29.66,NE,45,0.0,0.0,86,0.00,FEW,,0.10,WeatherDisplay:10.37,2013-06-20 13:08:00,
2013-06-20 07:13:00,63.7,59.1,29.66,WNW,292,0.0,0.0,85,0.00,FEW,,0.10,WeatherDisplay:10.37,2013-06-20 13:13:00,
2013-06-20 07:18:00,64.2,59.3,29.67,WSW,248,0.0,0.0,84,0.00,FEW,,0.10,WeatherDisplay:10.37,2013-06-20 13:18:00,
2013-06-20 07:23:00,64.8,59.9,29.67,ENE,68,0.0,1.1,84,0.00,FEW,,0.10,WeatherDisplay:10.37,2013-06-20 13:23:00,
2013-06-20 07:28:00,65.3,60.0,29.68,NNE,22,3.7,3.7,83,0.00,FEW,,0.10,WeatherDisplay:10.37,2013-06-20 13:28:00,
2013-06-20 07:33:00,66.0,59.7,29.68,NE,45,4.7,5.8,80,0.00,FEW,,0.10,WeatherDisplay:10.37,2013-06-20 13:33:00,
2013-06-20 07:38:00,66.9,60.5,29.68,NW,315,0.0,0.0,80,0.00,FEW,,0.10,WeatherDisplay:10.37,2013-06-20 13:38:00,
2013-06-20 07:43:00,67.8,61.0,29.68,NNE,22,2.3,2.7,79,0.00,FEW,,0.10,WeatherDisplay:10.37,2013-06-20 13:43:00,
2013-06-20 07:48:00,68.4,60.9,29.68,NNW,338,2.7,2.7,77,0.00,FEW,,0.10,WeatherDisplay:10.37,2013-06-20 13:48:00,
2013-06-20 07:53:00,69.4,61.1,29.70,East,90,0.0,0.0,75,0.00,FEW,,0.10,WeatherDisplay:10.37,2013-06-20 13:53:00,
2013-06-20 07:58:00,71.1,62.0,29.70,NE,45,1.9,2.3,73,0.00,FEW,,0.10,WeatherDisplay:10.37,2013-06-20 13:58:00,
2013-06-20 08:03:00,72.0,62.1,29.71,ENE,68,2.2,3.2,71,0.00,FEW,,0.10,WeatherDisplay:10.37,2013-06-20 14:03:00,
2013-06-20 08:08:00,74.3,62.6,29.71,North,360,0.7,1.7,67,0.00,FEW,,0.10,WeatherDisplay:10.37,2013-06-20 14:08:00,
2013-06-20 08:13:00,73.0,62.2,29.71,East,90,1.7,4.2,69,0.00,CLR,,0.10,WeatherDisplay:10.37,2013-06-20 14:13:00,
2013-06-20 08:18:00,72.1,61.4,29.70,WNW,292,2.6,2.6,69,0.00,CLR,,0.10,WeatherDisplay:10.37,2013-06-20 14:18:00,
2013-06-20 08:23:00,72.1,61.8,29.70,East,90,5.1,5.8,70,0.00,CLR,,0.10,WeatherDisplay:10.37,2013-06-20 14:23:00,
2013-06-20 08:28:00,71.2,62.1,29.71,NE,45,3.8,4.6,73,0.00,CLR,,0.10,WeatherDisplay:10.37,2013-06-20 14:28:00,
2013-06-20 08:33:00,71.8,62.3,29.71,ESE,112,3.1,4.6,72,0.00,CLR,,0.10,WeatherDisplay:10.37,2013-06-20 14:33:00,
2013-06-20 08:38:00,70.7,62.0,29.72,ESE,112,4.0,4.6,74,0.00,CLR,,0.10,WeatherDisplay:10.37,2013-06-20 14:38:00,
2013-06-20 08:43:00,71.4,61.9,29.72,SW,225,1.8,2.3,72,0.00,CLR,,0.10,WeatherDisplay:10.37,2013-06-20 14:43:00,
2013-06-20 08:48:00,70.7,62.0,29.72,NW,315,1.2,1.7,74,0.00,CLR,,0.10,WeatherDisplay:10.37,2013-06-20 14:48:00,
2013-06-20 08:53:00,71.4,62.3,29.73,ESE,112,1.9,2.3,73,0.00,BKN,,0.10,WeatherDisplay:10.37,2013-06-20 14:53:00,
2013-06-20 08:58:00,71.2,62.9,29.73,ESE,112,1.8,3.5,75,0.00,BKN,,0.10,WeatherDisplay:10.37,2013-06-20 14:58:00,
2013-06-20 09:03:00,71.4,63.1,29.73,East,90,2.8,3.2,75,0.00,BKN,,0.10,WeatherDisplay:10.37,2013-06-20 15:03:00,
2013-06-20 09:08:00,72.1,63.0,29.73,NNE,22,4.2,4.6,73,0.00,BKN,,0.10,WeatherDisplay:10.37,2013-06-20 15:08:00,
2013-06-20 09:13:00,71.4,62.7,29.73,ENE,68,4.5,5.8,74,0.00,BKN,,0.10,WeatherDisplay:10.37,2013-06-20 15:13:00,
2013-06-20 09:18:00,71.8,63.1,29.73,SSW,202,1.4,2.2,74,0.00,BKN,,0.10,WeatherDisplay:10.37,2013-06-20 15:18:00,
2013-06-20 09:23:00,72.5,63.4,29.73,ENE,68,2.0,2.3,73,0.00,BKN,,0.10,WeatherDisplay:10.37,2013-06-20 15:23:00,
2013-06-20 09:28:00,72.1,63.4,29.74,SE,135,0.9,2.3,74,0.00,BKN,,0.10,WeatherDisplay:10.37,2013-06-20 15:28:00,
2013-06-20 09:33:00,72.3,63.2,29.74,ESE,112,1.7,2.3,73,0.00,BKN,,0.10,WeatherDisplay:10.37,2013-06-20 15:33:00,
2013-06-20 09:38:00,72.0,63.3,29.74,ESE,112,0.6,1.1,74,0.00,BKN,,0.10,WeatherDisplay:10.37,2013-06-20 15:38:00,
2013-06-20 09:43:00,71.4,62.7,29.74,ENE,68,4.0,4.6,74,0.00,BKN,,0.10,WeatherDisplay:10.37,2013-06-20 15:43:00,
2013-06-20 09:48:00,70.5,62.9,29.74,ESE,112,3.6,4.6,77,0.00,BKN,,0.10,WeatherDisplay:10.37,2013-06-20 15:48:00,
2013-06-20 09:53:00,69.8,63.0,29.75,NE,45,4.9,5.8,79,0.00,BKN,,0.10,WeatherDisplay:10.37,2013-06-20 15:53:00,
2013-06-20 09:58:00,70.2,63.4,29.75,ENE,68,1.2,3.7,79,0.00,BKN,,0.10,WeatherDisplay:10.37,2013-06-20 15:58:00,
2013-06-20 10:03:00,70.7,63.5,29.75,NNE,22,3.5,4.6,78,0.00,BKN,,0.10,WeatherDisplay:10.37,2013-06-20 16:03:00,
2013-06-20 10:08:00,71.6,63.6,29.75,ENE,68,1.8,3.5,76,0.00,BKN,,0.10,WeatherDisplay:10.37,2013-06-20 16:08:00,
2013-06-20 10:13:00,72.0,63.6,29.75,NE,45,3.9,4.6,75,0.00,OVC,,0.10,WeatherDisplay:10.37,2013-06-20 16:13:00,
2013-06-20 10:18:00,72.9,63.7,29.75,NE,45,2.4,2.7,73,0.00,OVC,,0.10,WeatherDisplay:10.37,2013-06-20 16:18:00,
2013-06-20 10:23:00,72.1,63.4,29.75,NNE,22,4.2,5.8,74,0.00,OVC,,0.10,WeatherDisplay:10.37,2013-06-20 16:23:00,
2013-06-20 10:28:00,72.0,63.3,29.75,NNW,338,2.3,3.5,74,0.00,OVC,,0.10,WeatherDisplay:10.37,2013-06-20 16:28:00,
2013-06-20 10:33:00,72.7,63.1,29.75,NW,315,3.3,3.5,72,0.00,OVC,,0.10,WeatherDisplay:10.37,2013-06-20 16:33:00,
2013-06-20 10:38:00,74.1,63.7,29.76,East,90,4.2,4.7,70,0.00,OVC,,0.10,WeatherDisplay:10.37,2013-06-20 16:38:00,
2013-06-20 10:43:00,73.4,63.0,29.76,NNW,338,0.5,2.3,70,0.00,OVC,,0.10,WeatherDisplay:10.37,2013-06-20 16:43:00,
2013-06-20 10:48:00,73.2,63.2,29.76,SE,135,3.2,4.7,71,0.00,OVC,,0.10,WeatherDisplay:10.37,2013-06-20 16:48:00,
2013-06-20 10:53:00,73.9,63.9,29.76,SW,225,3.6,4.6,71,0.00,OVC,,0.10,WeatherDisplay:10.37,2013-06-20 16:53:00,
2013-06-20 10:58:00,74.5,64.1,29.76,SW,225,2.2,3.5,70,0.00,OVC,,0.10,WeatherDisplay:10.37,2013-06-20 16:58:00,
2013-06-20 11:03:00,73.6,63.6,29.76,SW,225,2.3,3.5,71,0.00,OVC,,0.10,WeatherDisplay:10.37,2013-06-20 17:03:00,
2013-06-20 11:08:00,74.5,63.2,29.76,WNW,292,4.4,5.3,68,0.00,OVC,,0.10,WeatherDisplay:10.37,2013-06-20 17:08:00,
2013-06-20 11:13:00,74.5,62.8,29.76,WSW,248,0.3,2.3,67,0.00,BKN,,0.10,WeatherDisplay:10.37,2013-06-20 17:13:00,
2013-06-20 11:18:00,75.0,62.4,29.77,NNE,22,1.9,5.8,65,0.00,BKN,,0.10,WeatherDisplay:10.37,2013-06-20 17:18:00,
2013-06-20 11:23:00,75.7,64.4,29.77,SSW,202,0.8,1.1,68,0.00,BKN,,0.10,WeatherDisplay:10.37,2013-06-20 17:23:00,
2013-06-20 11:28:00,75.7,63.1,29.77,NNE,22,3.3,5.8,65,0.00,BKN,,0.10,WeatherDisplay:10.37,2013-06-20 17:28:00,
2013-06-20 11:33:00,75.6,63.4,29.77,WSW,248,2.3,3.2,66,0.00,SCT,,0.10,WeatherDisplay:10.37,2013-06-20 17:33:00,
2013-06-20 11:38:00,76.3,63.2,29.78,NNW,338,1.7,1.7,64,0.00,SCT,,0.10,WeatherDisplay:10.37,2013-06-20 17:38:00,
2013-06-20 11:43:00,77.0,64.8,29.78,SW,225,0.8,3.2,66,0.00,SCT,,0.10,WeatherDisplay:10.37,2013-06-20 17:43:00,
2013-06-20 11:48:00,75.4,63.7,29.78,SW,225,2.2,4.6,67,0.00,SCT,,0.10,WeatherDisplay:10.37,2013-06-20 17:48:00,
2013-06-20 11:53:00,75.6,63.9,29.78,WSW,248,2.7,2.7,67,0.00,BKN,,0.10,WeatherDisplay:10.37,2013-06-20 17:53:00,
2013-06-20 11:58:00,75.9,63.3,29.78,SW,225,2.5,2.7,65,0.00,BKN,,0.10,WeatherDisplay:10.37,2013-06-20 17:58:00,
2013-06-20 12:03:00,75.9,64.2,29.78,SW,225,1.3,2.7,67,0.00,BKN,,0.10,WeatherDisplay:10.37,2013-06-20 18:03:00,
2013-06-20 12:09:00,75.6,63.9,29.78,West,270,2.6,3.5,67,0.00,BKN,,0.10,WeatherDisplay:10.37,2013-06-20 18:09:00,
2013-06-20 12:14:00,75.9,64.2,29.77,NE,45,2.5,3.5,67,0.00,BKN,,0.10,WeatherDisplay:10.37,2013-06-20 18:14:00,
2013-06-20 12:19:00,75.7,63.5,29.77,WNW,292,3.9,4.6,66,0.00,BKN,,0.10,WeatherDisplay:10.37,2013-06-20 18:19:00,
2013-06-20 12:24:00,77.7,65.0,29.77,NE,45,2.6,3.5,65,0.00,BKN,,0.10,WeatherDisplay:10.37,2013-06-20 18:24:00,
2013-06-20 12:29:00,76.1,63.9,29.78,NE,45,3.1,3.7,66,0.00,BKN,,0.10,WeatherDisplay:10.37,2013-06-20 18:29:00,
2013-06-20 12:34:00,76.1,63.9,29.78,NNW,338,4.3,4.6,66,0.00,BKN,,0.10,WeatherDisplay:10.37,2013-06-20 18:34:00,
2013-06-20 12:39:00,76.5,64.7,29.78,NE,45,2.3,3.5,67,0.00,BKN,,0.10,WeatherDisplay:10.37,2013-06-20 18:39:00,
2013-06-20 12:44:00,78.1,65.4,29.78,NE,45,3.2,5.8,65,0.00,BKN,,0.10,WeatherDisplay:10.37,2013-06-20 18:44:00,
2013-06-20 12:49:00,76.8,65.0,29.78,NNW,338,3.1,5.8,67,0.00,BKN,,0.10,WeatherDisplay:10.37,2013-06-20 18:49:00,
2013-06-20 12:54:00,76.8,65.0,29.78,NNW,338,3.4,4.7,67,0.00,BKN,,0.10,WeatherDisplay:10.37,2013-06-20 18:54:00,
2013-06-20 12:59:00,76.1,64.8,29.78,East,90,2.5,5.8,68,0.00,BKN,,0.10,WeatherDisplay:10.37,2013-06-20 18:59:00,
2013-06-20 13:04:00,77.4,65.1,29.79,NNW,338,6.0,6.9,66,0.00,BKN,,0.10,WeatherDisplay:10.37,2013-06-20 19:04:00,
2013-06-20 13:09:00,77.0,66.0,29.79,NNE,22,8.2,9.4,69,0.00,BKN,,0.10,WeatherDisplay:10.37,2013-06-20 19:09:00,
2013-06-20 13:14:00,76.1,65.6,29.80,NNE,22,4.7,6.9,70,0.00,OVC,,0.10,WeatherDisplay:10.37,2013-06-20 19:14:00,
2013-06-20 13:19:00,74.7,65.9,29.80,ENE,68,6.4,8.1,74,0.00,OVC,,0.10,WeatherDisplay:10.37,2013-06-20 19:19:00,
2013-06-20 13:24:00,75.7,66.0,29.80,SW,225,5.9,8.1,72,0.00,OVC,,0.10,WeatherDisplay:10.37,2013-06-20 19:24:00,
2013-06-20 13:29:00,75.6,66.3,29.80,NNE,22,5.7,8.1,73,0.00,OVC,,0.10,WeatherDisplay:10.37,2013-06-20 19:29:00,
2013-06-20 13:34:00,75.2,65.9,29.80,WNW,292,7.8,9.2,73,0.00,OVC,,0.10,WeatherDisplay:10.37,2013-06-20 19:34:00,
2013-06-20 13:39:00,74.7,65.5,29.80,NE,45,6.7,9.4,73,0.00,OVC,,0.10,WeatherDisplay:10.37,2013-06-20 19:39:00,
2013-06-20 13:44:00,73.9,65.1,29.80,NE,45,5.4,6.9,74,0.00,OVC,,0.10,WeatherDisplay:10.37,2013-06-20 19:44:00,
2013-06-20 13:49:00,73.8,65.0,29.80,SW,225,5.7,5.8,74,0.00,OVC,,0.10,WeatherDisplay:10.37,2013-06-20 19:49:00,
2013-06-20 13:54:00,75.9,65.8,29.81,ENE,68,5.6,7.3,71,0.00,OVC,,0.10,WeatherDisplay:10.37,2013-06-20 19:54:00,
2013-06-20 13:59:00,75.4,65.7,29.81,East,90,6.2,8.1,72,0.00,OVC,,0.10,WeatherDisplay:10.37,2013-06-20 19:59:00,
2013-06-20 14:04:00,74.7,65.5,29.81,ESE,112,6.3,10.9,73,0.00,OVC,,0.10,WeatherDisplay:10.37,2013-06-20 20:04:00,
2013-06-20 14:09:00,74.8,65.6,29.81,ENE,68,5.9,9.4,73,0.00,OVC,,0.10,WeatherDisplay:10.37,2013-06-20 20:09:00,
2013-06-20 14:14:00,75.0,65.4,29.81,ENE,68,5.0,5.8,72,0.00,FEW,,0.10,WeatherDisplay:10.37,2013-06-20 20:14:00,
2013-06-20 14:19:00,76.5,66.0,29.81,SSE,158,4.0,5.8,70,0.00,FEW,,0.10,WeatherDisplay:10.37,2013-06-20 20:19:00,
2013-06-20 14:24:00,75.7,65.6,29.81,NW,315,4.2,5.8,71,0.00,FEW,,0.10,WeatherDisplay:10.37,2013-06-20 20:24:00,
2013-06-20 14:29:00,76.5,65.6,29.81,ESE,112,5.5,6.8,69,0.00,FEW,,0.10,WeatherDisplay:10.37,2013-06-20 20:29:00,
2013-06-20 14:34:00,76.6,65.2,29.81,NNE,22,5.5,7.3,68,0.00,FEW,,0.10,WeatherDisplay:10.37,2013-06-20 20:34:00,
2013-06-20 14:39:00,76.8,65.9,29.81,ESE,112,4.2,6.9,69,0.00,FEW,,0.10,WeatherDisplay:10.37,2013-06-20 20:39:00,
2013-06-20 14:44:00,76.6,66.1,29.81,West,270,3.2,9.2,70,0.00,FEW,,0.10,WeatherDisplay:10.37,2013-06-20 20:44:00,
2013-06-20 14:49:00,76.3,65.8,29.81,East,90,4.8,6.3,70,0.00,FEW,,0.10,WeatherDisplay:10.37,2013-06-20 20:49:00,
2013-06-20 14:54:00,75.9,65.0,29.80,ENE,68,6.7,6.9,69,0.00,FEW,,0.10,WeatherDisplay:10.37,2013-06-20 20:54:00,
2013-06-20 14:59:00,75.7,65.2,29.80,NE,45,5.5,5.8,70,0.00,FEW,,0.10,WeatherDisplay:10.37,2013-06-20 20:59:00,
2013-06-20 15:04:00,75.4,65.3,29.81,WNW,292,4.3,5.8,71,0.00,FEW,,0.10,WeatherDisplay:10.37,2013-06-20 21:04:00,
2013-06-20 15:09:00,75.0,65.0,29.81,NE,45,5.4,5.8,71,0.00,FEW,,0.10,WeatherDisplay:10.37,2013-06-20 21:09:00,
2013-06-20 15:14:00,76.1,65.6,29.81,ENE,68,4.2,6.9,70,0.00,CLR,,0.10,WeatherDisplay:10.37,2013-06-20 21:14:00,
2013-06-20 15:19:00,76.6,65.7,29.81,SSE,158,2.5,5.8,69,0.00,CLR,,0.10,WeatherDisplay:10.37,2013-06-20 21:19:00,
2013-06-20 15:24:00,77.0,65.6,29.81,NNE,22,3.1,3.5,68,0.00,CLR,,0.10,WeatherDisplay:10.37,2013-06-20 21:24:00,
2013-06-20 15:29:00,77.7,66.3,29.81,NNE,22,2.2,4.6,68,0.00,CLR,,0.10,WeatherDisplay:10.37,2013-06-20 21:29:00,
2013-06-20 15:34:00,77.5,65.7,29.81,NNE,22,3.3,4.6,67,0.00,CLR,,0.10,WeatherDisplay:10.37,2013-06-20 21:34:00,
2013-06-20 15:39:00,77.5,64.8,29.81,East,90,4.7,6.9,65,0.00,CLR,,0.10,WeatherDisplay:10.37,2013-06-20 21:39:00,
2013-06-20 15:44:00,77.0,65.2,29.81,ESE,112,2.6,4.2,67,0.00,CLR,,0.10,WeatherDisplay:10.37,2013-06-20 21:44:00,
2013-06-20 15:49:00,78.1,66.2,29.81,NNW,338,2.9,4.7,67,0.00,CLR,,0.10,WeatherDisplay:10.37,2013-06-20 21:49:00,
2013-06-20 15:54:00,77.9,64.7,29.81,East,90,1.8,2.3,64,0.00,CLR,,0.10,WeatherDisplay:10.37,2013-06-20 21:54:00,
2013-06-20 15:59:00,78.3,65.6,29.81,NNW,338,2.5,4.6,65,0.00,CLR,,0.10,WeatherDisplay:10.37,2013-06-20 21:59:00,
2013-06-20 16:04:00,78.3,65.6,29.81,NNE,22,2.6,4.2,65,0.00,CLR,,0.10,WeatherDisplay:10.37,2013-06-20 22:04:00,
2013-06-20 16:09:00,77.7,64.5,29.81,West,270,1.3,3.5,64,0.00,CLR,,0.10,WeatherDisplay:10.37,2013-06-20 22:09:00,
2013-06-20 16:14:00,77.0,63.9,29.81,NW,315,2.9,3.5,64,0.00,CLR,,0.10,WeatherDisplay:10.37,2013-06-20 22:14:00,
2013-06-20 16:19:00,78.4,64.8,29.81,ENE,68,4.1,5.8,63,0.00,CLR,,0.10,WeatherDisplay:10.37,2013-06-20 22:19:00,
2013-06-20 16:24:00,78.4,64.8,29.81,NE,45,1.2,2.7,63,0.00,CLR,,0.10,WeatherDisplay:10.37,2013-06-20 22:24:00,
2013-06-20 16:29:00,79.0,64.9,29.81,West,270,4.7,5.3,62,0.00,CLR,,0.10,WeatherDisplay:10.37,2013-06-20 22:29:00,
2013-06-20 16:34:00,79.7,65.1,29.81,NW,315,1.7,2.2,61,0.00,CLR,,0.10,WeatherDisplay:10.37,2013-06-20 22:34:00,
2013-06-20 16:39:00,77.4,64.7,29.81,North,360,3.6,4.6,65,0.00,CLR,,0.10,WeatherDisplay:10.37,2013-06-20 22:39:00,
2013-06-20 16:44:00,77.9,64.7,29.81,North,360,1.9,3.5,64,0.00,CLR,,0.10,WeatherDisplay:10.37,2013-06-20 22:44:00,
2013-06-20 16:49:00,77.9,64.3,29.81,NE,45,5.7,5.8,63,0.00,CLR,,0.10,WeatherDisplay:10.37,2013-06-20 22:49:00,
2013-06-20 16:54:00,78.1,64.0,29.80,NE,45,6.6,8.1,62,0.00,CLR,,0.10,WeatherDisplay:10.37,2013-06-20 22:54:00,
2013-06-20 16:59:00,78.3,64.2,29.80,NE,45,3.7,5.8,62,0.00,CLR,,0.10,WeatherDisplay:10.37,2013-06-20 22:59:00,
2013-06-20 17:04:00,78.3,64.7,29.80,NE,45,3.0,5.8,63,0.00,CLR,,0.10,WeatherDisplay:10.37,2013-06-20 23:04:00,
2013-06-20 17:09:00,78.1,64.5,29.80,North,360,2.9,4.6,63,0.00,CLR,,0.10,WeatherDisplay:10.37,2013-06-20 23:09:00,
2013-06-20 17:14:00,78.6,64.5,29.80,NE,45,3.6,5.8,62,0.00,FEW,,0.10,WeatherDisplay:10.37,2013-06-20 23:14:00,
2013-06-20 17:19:00,79.5,64.9,29.80,NW,315,2.2,3.5,61,0.00,FEW,,0.10,WeatherDisplay:10.37,2013-06-20 23:19:00,
2013-06-20 17:24:00,78.8,64.7,29.80,NE,45,2.7,5.8,62,0.00,FEW,,0.10,WeatherDisplay:10.37,2013-06-20 23:24:00,
2013-06-20 17:29:00,78.8,64.2,29.80,South,180,3.0,3.5,61,0.00,FEW,,0.10,WeatherDisplay:10.37,2013-06-20 23:29:00,
2013-06-20 17:34:00,79.7,64.6,29.80,NNW,338,4.9,5.8,60,0.00,FEW,,0.10,WeatherDisplay:10.37,2013-06-20 23:34:00,
2013-06-20 17:39:00,79.5,63.9,29.80,NE,45,2.5,4.6,59,0.00,FEW,,0.10,WeatherDisplay:10.37,2013-06-20 23:39:00,
2013-06-20 17:44:00,79.7,64.6,29.80,NE,45,4.8,5.3,60,0.00,FEW,,0.10,WeatherDisplay:10.37,2013-06-20 23:44:00,
2013-06-20 17:49:00,78.8,63.3,29.81,SW,225,2.7,3.5,59,0.00,FEW,,0.10,WeatherDisplay:10.37,2013-06-20 23:49:00,
2013-06-20 17:55:00,78.8,63.3,29.81,NNW,338,5.0,5.8,59,0.00,FEW,,0.10,WeatherDisplay:10.37,2013-06-20 23:55:00,
2013-06-20 18:00:00,79.3,63.7,29.81,NNE,22,2.4,4.6,59,0.00,FEW,,0.10,WeatherDisplay:10.37,2013-06-21 00:00:00,
2013-06-20 18:05:00,78.6,63.1,29.80,WNW,292,3.9,8.1,59,0.00,FEW,,0.10,WeatherDisplay:10.37,2013-06-21 00:05:00,
2013-06-20 18:10:00,77.9,62.4,29.80,WNW,292,2.9,4.6,59,0.00,FEW,,0.10,WeatherDisplay:10.37,2013-06-21 00:10:00,
2013-06-20 18:15:00,77.9,63.8,29.81,NW,315,4.3,6.8,62,0.00,CLR,,0.10,WeatherDisplay:10.37,2013-06-21 00:15:00,
2013-06-20 18:20:00,77.7,64.1,29.81,NE,45,3.3,3.7,63,0.00,CLR,,0.10,WeatherDisplay:10.37,2013-06-21 00:20:00,
2013-06-20 18:25:00,77.4,64.3,29.81,WNW,292,4.0,6.3,64,0.00,CLR,,0.10,WeatherDisplay:10.37,2013-06-21 00:25:00,
2013-06-20 18:30:00,77.0,63.9,29.81,West,270,5.0,5.8,64,0.00,CLR,,0.10,WeatherDisplay:10.37,2013-06-21 00:30:00,
2013-06-20 18:35:00,77.2,64.1,29.81,NNE,22,2.6,3.5,64,0.00,CLR,,0.10,WeatherDisplay:10.37,2013-06-21 00:35:00,
2013-06-20 18:40:00,77.0,63.4,29.81,NNW,338,2.6,6.9,63,0.00,CLR,,0.10,WeatherDisplay:10.37,2013-06-21 00:40:00,
2013-06-20 18:45:00,76.5,63.4,29.81,WNW,292,4.1,6.9,64,0.00,CLR,,0.10,WeatherDisplay:10.37,2013-06-21 00:45:00,
2013-06-20 18:50:00,76.3,64.1,29.82,WSW,248,4.5,5.8,66,0.00,CLR,,0.10,WeatherDisplay:10.37,2013-06-21 00:50:00,
2013-06-20 18:55:00,76.5,64.3,29.82,NE,45,5.6,6.8,66,0.00,CLR,,0.10,WeatherDisplay:10.37,2013-06-21 00:55:00,
2013-06-20 19:00:00,75.9,64.2,29.82,NNE,22,4.8,5.8,67,0.00,CLR,,0.10,WeatherDisplay:10.37,2013-06-21 01:00:00,
2013-06-20 19:05:00,75.9,63.7,29.82,West,270,4.3,6.8,66,0.00,CLR,,0.10,WeatherDisplay:10.37,2013-06-21 01:05:00,
2013-06-20 19:10:00,75.6,63.4,29.82,West,270,5.6,9.4,66,0.00,CLR,,0.10,WeatherDisplay:10.37,2013-06-21 01:10:00,
2013-06-20 19:15:00,75.4,63.2,29.82,ENE,68,4.0,5.8,66,0.00,CLR,,0.10,WeatherDisplay:10.37,2013-06-21 01:15:00,
2013-06-20 19:20:00,75.2,62.6,29.82,NNE,22,4.7,6.8,65,0.00,CLR,,0.10,WeatherDisplay:10.37,2013-06-21 01:20:00,
2013-06-20 19:25:00,75.2,63.5,29.82,East,90,8.0,10.4,67,0.00,CLR,,0.10,WeatherDisplay:10.37,2013-06-21 01:25:00,
2013-06-20 19:30:00,74.7,63.4,29.83,NNW,338,4.2,6.9,68,0.00,CLR,,0.10,WeatherDisplay:10.37,2013-06-21 01:30:00,
2013-06-20 19:35:00,74.3,63.5,29.83,North,360,6.2,8.1,69,0.00,CLR,,0.10,WeatherDisplay:10.37,2013-06-21 01:35:00,
2013-06-20 19:40:00,74.3,63.5,29.83,NNE,22,4.7,9.2,69,0.00,CLR,,0.10,WeatherDisplay:10.37,2013-06-21 01:40:00,
2013-06-20 19:45:00,74.1,63.3,29.83,ENE,68,4.8,6.9,69,0.00,CLR,,0.10,WeatherDisplay:10.37,2013-06-21 01:45:00,
2013-06-20 19:50:00,73.9,63.1,29.84,NE,45,5.0,5.8,69,0.00,CLR,,0.10,WeatherDisplay:10.37,2013-06-21 01:50:00,
2013-06-20 19:55:00,73.8,63.4,29.84,NNE,22,2.8,3.5,70,0.00,CLR,,0.10,WeatherDisplay:10.37,2013-06-21 01:55:00,
2013-06-20 20:00:00,73.4,63.0,29.84,NE,45,5.2,5.8,70,0.00,CLR,,0.10,WeatherDisplay:10.37,2013-06-21 02:00:00,
2013-06-20 20:05:00,73.2,62.8,29.84,NE,45,5.2,6.9,70,0.00,CLR,,0.10,WeatherDisplay:10.37,2013-06-21 02:05:00,
2013-06-20 20:10:00,73.0,62.6,29.84,North,360,2.8,3.5,70,0.00,CLR,,0.10,WeatherDisplay:10.37,2013-06-21 02:10:00,
2013-06-20 20:15:00,72.7,62.8,29.85,North,360,3.0,3.7,71,0.00,CLR,,0.10,WeatherDisplay:10.37,2013-06-21 02:15:00,
2013-06-20 20:20:00,72.5,62.6,29.85,ENE,68,3.7,5.8,71,0.00,CLR,,0.10,WeatherDisplay:10.37,2013-06-21 02:20:00,
2013-06-20 20:25:00,72.1,62.6,29.85,ENE,68,3.4,5.8,72,0.00,CLR,,0.10,WeatherDisplay:10.37,2013-06-21 02:25:00,
2013-06-20 20:30:00,72.0,62.9,29.86,ENE,68,4.8,6.9,73,0.00,CLR,,0.10,WeatherDisplay:10.37,2013-06-21 02:30:00,
2013-06-20 20:35:00,71.6,62.9,29.86,SSE,158,4.8,4.8,74,0.00,CLR,,0.10,WeatherDisplay:10.37,2013-06-21 02:35:00,
2013-06-20 20:40:00,71.4,62.7,29.85,ENE,68,4.7,5.8,74,0.00,CLR,,0.10,WeatherDisplay:10.37,2013-06-21 02:40:00,
2013-06-20 20:45:00,71.1,62.8,29.85,NE,45,5.6,6.9,75,0.00,CLR,,0.10,WeatherDisplay:10.37,2013-06-21 02:45:00,
2013-06-20 20:50:00,70.9,63.0,29.86,NNE,22,3.5,4.6,76,0.00,CLR,,0.10,WeatherDisplay:10.37,2013-06-21 02:50:00,
2013-06-20 20:56:00,70.7,63.1,29.86,North,360,5.9,5.9,77,0.00,CLR,,0.10,WeatherDisplay:10.37,2013-06-21 02:56:00,
2013-06-20 21:00:00,70.5,62.9,29.86,NNE,22,4.2,5.8,77,0.00,CLR,,0.10,WeatherDisplay:10.37,2013-06-21 03:00:00,
2013-06-20 21:06:00,70.2,63.0,29.87,North,360,2.6,3.5,78,0.00,CLR,,0.10,WeatherDisplay:10.37,2013-06-21 03:06:00,
2013-06-20 21:11:00,70.0,62.8,29.87,NW,315,3.1,5.8,78,0.00,CLR,,0.10,WeatherDisplay:10.37,2013-06-21 03:11:00,
2013-06-20 21:16:00,69.8,62.6,29.87,ENE,68,3.6,4.7,78,0.00,CLR,,0.10,WeatherDisplay:10.37,2013-06-21 03:16:00,
2013-06-20 21:21:00,69.6,62.4,29.87,ENE,68,3.8,4.7,78,0.00,CLR,,0.10,WeatherDisplay:10.37,2013-06-21 03:21:00,
2013-06-20 21:26:00,69.4,62.6,29.87,NNE,22,3.4,4.2,79,0.00,CLR,,0.10,WeatherDisplay:10.37,2013-06-21 03:26:00,
2013-06-20 21:31:00,69.3,62.5,29.87,NW,315,2.8,4.6,79,0.00,CLR,,0.10,WeatherDisplay:10.37,2013-06-21 03:31:00,
2013-06-20 21:36:00,69.3,62.5,29.87,NE,45,2.0,3.5,79,0.00,CLR,,0.10,WeatherDisplay:10.37,2013-06-21 03:36:00,
2013-06-20 21:41:00,69.3,62.5,29.88,NW,315,3.6,4.6,79,0.00,CLR,,0.10,WeatherDisplay:10.37,2013-06-21 03:41:00,
2013-06-20 21:46:00,69.3,62.5,29.88,NNE,22,1.7,2.3,79,0.00,CLR,,0.10,WeatherDisplay:10.37,2013-06-21 03:46:00,
2013-06-20 21:51:00,69.3,62.5,29.89,ENE,68,2.8,2.8,79,0.00,CLR,,0.10,WeatherDisplay:10.37,2013-06-21 03:51:00,
2013-06-20 21:56:00,69.1,62.3,29.89,NNW,338,3.7,4.6,79,0.00,CLR,,0.10,WeatherDisplay:10.37,2013-06-21 03:56:00,
2013-06-20 22:01:00,69.1,62.3,29.89,WSW,248,3.1,5.8,79,0.00,CLR,,0.10,WeatherDisplay:10.37,2013-06-21 04:01:00,
2013-06-20 22:06:00,68.9,62.5,29.89,NW,315,2.6,3.5,80,0.00,CLR,,0.10,WeatherDisplay:10.37,2013-06-21 04:06:00,
2013-06-20 22:11:00,68.5,62.1,29.89,NW,315,2.1,4.7,80,0.00,SCT,,0.10,WeatherDisplay:10.37,2013-06-21 04:11:00,
2013-06-20 22:16:00,68.4,62.3,29.89,West,270,1.5,2.3,81,0.00,SCT,,0.10,WeatherDisplay:10.37,2013-06-21 04:16:00,
2013-06-20 22:21:00,68.2,62.1,29.89,NE,45,2.6,3.5,81,0.00,SCT,,0.10,WeatherDisplay:10.37,2013-06-21 04:21:00,
2013-06-20 22:26:00,68.0,62.3,29.89,WSW,248,3.1,3.7,82,0.00,SCT,,0.10,WeatherDisplay:10.37,2013-06-21 04:26:00,
2013-06-20 22:31:00,67.8,62.1,29.89,NNE,22,3.0,4.7,82,0.00,SCT,,0.10,WeatherDisplay:10.37,2013-06-21 04:31:00,
2013-06-20 22:36:00,67.8,62.1,29.89,NNW,338,3.1,3.7,82,0.00,SCT,,0.10,WeatherDisplay:10.37,2013-06-21 04:36:00,
2013-06-20 22:41:00,67.8,62.1,29.89,NNW,338,0.0,1.1,82,0.00,SCT,,0.10,WeatherDisplay:10.37,2013-06-21 04:41:00,
2013-06-20 22:46:00,67.6,62.3,29.89,NNW,338,1.5,2.3,83,0.00,SCT,,0.10,WeatherDisplay:10.37,2013-06-21 04:46:00,
2013-06-20 22:51:00,67.3,62.0,29.89,West,270,3.0,3.5,83,0.00,SCT,,0.10,WeatherDisplay:10.37,2013-06-21 04:51:00,
2013-06-20 22:56:00,67.1,62.1,29.89,NW,315,1.7,2.3,84,0.00,SCT,,0.10,WeatherDisplay:10.37,2013-06-21 04:56:00,
2013-06-20 23:01:00,66.7,61.7,29.90,WNW,292,1.6,2.2,84,0.00,SCT,,0.10,WeatherDisplay:10.37,2013-06-21 05:01:00,
2013-06-20 23:06:00,66.4,61.8,29.90,NW,315,1.9,2.3,85,0.00,SCT,,0.10,WeatherDisplay:10.37,2013-06-21 05:06:00,
2013-06-20 23:11:00,66.2,61.6,29.90,East,90,2.8,4.6,85,0.00,FEW,,0.10,WeatherDisplay:10.37,2013-06-21 05:11:00,
2013-06-20 23:16:00,65.8,61.5,29.90,North,360,1.9,2.7,86,0.00,FEW,,0.10,WeatherDisplay:10.37,2013-06-21 05:16:00,
2013-06-20 23:21:00,65.7,61.4,29.90,NNW,338,3.0,4.6,86,0.00,FEW,,0.10,WeatherDisplay:10.37,2013-06-21 05:21:00,
2013-06-20 23:26:00,65.5,61.2,29.89,ESE,112,0.9,2.3,86,0.00,FEW,,0.10,WeatherDisplay:10.37,2013-06-21 05:26:00,
2013-06-20 23:31:00,65.1,61.1,29.89,NW,315,2.3,6.8,87,0.00,FEW,,0.10,WeatherDisplay:10.37,2013-06-21 05:31:00,
2013-06-20 23:36:00,65.1,61.1,29.89,NNE,22,2.8,4.6,87,0.00,FEW,,0.10,WeatherDisplay:10.37,2013-06-21 05:36:00,
2013-06-20 23:41:00,65.1,61.5,29.89,NW,315,3.4,4.6,88,0.00,FEW,,0.10,WeatherDisplay:10.37,2013-06-21 05:41:00,
2013-06-20 23:46:00,64.9,61.3,29.89,NNW,338,2.5,2.7,88,0.00,FEW,,0.10,WeatherDisplay:10.37,2013-06-21 05:46:00,
2013-06-20 23:51:00,64.9,61.3,29.89,WNW,292,2.4,4.6,88,0.00,FEW,,0.10,WeatherDisplay:10.37,2013-06-21 05:51:00,
2013-06-20 23:56:00,64.8,61.2,29.89,WNW,292,2.1,2.7,88,0.00,FEW,,0.10,WeatherDisplay:10.37,2013-06-21 05:56:00,